Time,TemperatureF,DewpointF,PressureIn,WindDirection,WindDirectionDegrees,WindSpeedMPH,WindSpeedGustMPH,Humidity,HourlyPrecipIn,Conditions,Clouds,dailyrainin,SoftwareType,DateUTC
2013-08-03 00:02:00,68.0,55.0,30.10,North,9,9.0,12.0,64,0.09,,,-99.99,,2013-08-03 06:02:00,
2013-08-03 00:12:00,68.0,54.0,30.10,NNE,16,11.0,11.0,60,0.09,,,-99.99,,2013-08-03 06:12:00,
2013-08-03 00:22:00,69.0,54.0,30.09,NNW,343,11.0,14.0,59,0.09,,,-99.99,,2013-08-03 06:22:00,
2013-08-03 00:32:00,68.0,54.0,30.09,North,2,8.0,13.0,60,0.09,,,-99.99,,2013-08-03 06:32:00,
2013-08-03 00:42:00,68.0,54.0,30.09,NNW,327,8.0,14.0,61,0.09,,,-99.99,,2013-08-03 06:42:00,
2013-08-03 00:52:00,68.0,54.0,30.08,NNW,340,12.0,15.0,61,0.09,,,-99.99,,2013-08-03 06:52:00,
2013-08-03 01:02:00,67.0,54.0,30.08,NNW,338,9.0,13.0,64,0.00,,,-99.99,,2013-08-03 07:02:00,
2013-08-03 01:12:00,67.0,56.0,30.07,North,352,6.0,11.0,68,0.00,,,-99.99,,2013-08-03 07:12:00,
2013-08-03 01:22:00,67.0,56.0,30.08,NE,42,0.0,9.0,69,0.00,,,-99.99,,2013-08-03 07:22:00,
2013-08-03 01:32:00,67.0,56.0,30.08,NE,42,0.0,3.0,69,0.00,,,-99.99,,2013-08-03 07:32:00,
2013-08-03 01:43:00,67.0,57.0,30.08,WSW,241,4.0,4.0,70,0.00,,,-99.99,,2013-08-03 07:43:00,
2013-08-03 01:52:00,66.0,57.0,30.08,WSW,241,5.0,6.0,72,0.00,,,-99.99,,2013-08-03 07:52:00,
2013-08-03 02:02:00,66.0,57.0,30.08,SW,234,5.0,6.0,72,0.00,,,-99.99,,2013-08-03 08:02:00,
2013-08-03 02:11:00,66.0,58.0,30.07,SW,220,4.0,7.0,76,0.00,,,-99.99,,2013-08-03 08:11:00,
2013-08-03 02:22:00,65.0,57.0,30.08,SW,219,4.0,6.0,76,0.00,,,-99.99,,2013-08-03 08:22:00,
2013-08-03 02:32:00,66.0,58.0,30.08,SW,216,3.0,6.0,76,0.00,,,-99.99,,2013-08-03 08:32:00,
2013-08-03 02:43:00,66.0,58.0,30.08,SW,216,0.0,6.0,76,0.00,,,-99.99,,2013-08-03 08:43:00,
2013-08-03 02:52:00,66.0,58.0,30.08,SW,216,0.0,0.0,75,0.00,,,-99.99,,2013-08-03 08:52:00,
2013-08-03 03:02:00,65.0,58.0,30.08,SW,216,0.0,0.0,77,0.00,,,-99.99,,2013-08-03 09:02:00,
2013-08-03 03:12:00,65.0,58.0,30.08,ESE,108,1.0,0.0,77,0.00,,,-99.99,,2013-08-03 09:12:00,
2013-08-03 03:22:00,65.0,58.0,30.08,ESE,108,0.0,2.0,78,0.00,,,-99.99,,2013-08-03 09:22:00,
2013-08-03 03:32:00,65.0,58.0,30.08,ESE,108,0.0,0.0,77,0.00,,,-99.99,,2013-08-03 09:32:00,
2013-08-03 03:43:00,65.0,58.0,30.08,ESE,108,0.0,0.0,77,0.00,,,-99.99,,2013-08-03 09:43:00,
2013-08-03 03:53:00,65.0,58.0,30.09,ESE,108,0.0,0.0,77,0.00,,,-99.99,,2013-08-03 09:53:00,
2013-08-03 04:02:00,65.0,58.0,30.09,ESE,108,0.0,0.0,79,0.00,,,-99.99,,2013-08-03 10:02:00,
2013-08-03 04:12:00,65.0,59.0,30.10,ESE,108,0.0,0.0,80,0.00,,,-99.99,,2013-08-03 10:12:00,
2013-08-03 04:22:00,64.0,58.0,30.10,ESE,108,0.0,0.0,80,0.00,,,-99.99,,2013-08-03 10:22:00,
2013-08-03 04:32:00,64.0,58.0,30.11,ESE,108,0.0,0.0,81,0.00,,,-99.99,,2013-08-03 10:32:00,
2013-08-03 04:42:00,64.0,59.0,30.11,ESE,108,0.0,0.0,83,0.00,,,-99.99,,2013-08-03 10:42:00,
2013-08-03 04:52:00,64.0,58.0,30.10,ESE,104,4.0,4.0,82,0.00,,,-99.99,,2013-08-03 10:52:00,
2013-08-03 05:02:00,63.0,58.0,30.11,ESE,105,3.0,4.0,83,0.00,,,-99.99,,2013-08-03 11:02:00,
2013-08-03 05:12:00,63.0,57.0,30.11,ESE,120,2.0,5.0,82,0.00,,,-99.99,,2013-08-03 11:12:00,
2013-08-03 05:22:00,63.0,57.0,30.11,ESE,102,0.0,0.0,81,0.00,,,-99.99,,2013-08-03 11:22:00,
2013-08-03 05:32:00,63.0,57.0,30.11,ESE,102,0.0,0.0,82,0.00,,,-99.99,,2013-08-03 11:32:00,
2013-08-03 05:43:00,63.0,57.0,30.12,ESE,102,0.0,0.0,81,0.00,,,-99.99,,2013-08-03 11:43:00,
2013-08-03 05:53:00,63.0,57.0,30.12,ESE,102,0.0,0.0,81,0.00,,,-99.99,,2013-08-03 11:53:00,
2013-08-03 06:02:00,63.0,57.0,30.12,SE,143,3.0,4.0,80,0.00,,,-99.99,,2013-08-03 12:02:00,
2013-08-03 06:12:00,63.0,57.0,30.12,SE,135,4.0,5.0,80,0.00,,,-99.99,,2013-08-03 12:12:00,
2013-08-03 06:22:00,63.0,56.0,30.13,ESE,104,4.0,6.0,79,0.00,,,-99.99,,2013-08-03 12:22:00,
2013-08-03 06:32:00,63.0,57.0,30.13,ESE,105,3.0,5.0,80,0.00,,,-99.99,,2013-08-03 12:32:00,
2013-08-03 06:43:00,63.0,57.0,30.13,ESE,102,3.0,4.0,80,0.00,,,-99.99,,2013-08-03 12:43:00,
2013-08-03 06:52:00,63.0,56.0,30.14,ESE,109,3.0,4.0,79,0.00,,,-99.99,,2013-08-03 12:52:00,
2013-08-03 07:02:00,63.0,56.0,30.15,ENE,67,0.0,4.0,79,0.00,,,-99.99,,2013-08-03 13:02:00,
2013-08-03 07:12:00,63.0,56.0,30.15,NW,317,0.0,2.0,79,0.00,,,-99.99,,2013-08-03 13:12:00,
2013-08-03 07:22:00,64.0,58.0,30.15,NW,317,0.0,0.0,81,0.00,,,-99.99,,2013-08-03 13:22:00,
2013-08-03 07:33:00,64.0,58.0,30.15,NW,317,0.0,0.0,81,0.00,,,-99.99,,2013-08-03 13:33:00,
2013-08-03 07:43:00,64.0,58.0,30.15,NW,317,0.0,0.0,80,0.00,,,-99.99,,2013-08-03 13:43:00,
2013-08-03 07:52:00,64.0,57.0,30.15,North,352,2.0,5.0,78,0.00,,,-99.99,,2013-08-03 13:52:00,
2013-08-03 08:02:00,65.0,58.0,30.15,NNW,327,6.0,7.0,78,0.00,,,-99.99,,2013-08-03 14:02:00,
2013-08-03 08:12:00,65.0,58.0,30.15,NNE,21,6.0,8.0,78,0.00,,,-99.99,,2013-08-03 14:12:00,
2013-08-03 08:22:00,65.0,58.0,30.15,NNE,21,6.0,8.0,78,0.00,,,-99.99,,2013-08-03 14:22:00,
2013-08-03 08:33:00,66.0,58.0,30.15,North,357,9.0,9.0,76,0.00,,,-99.99,,2013-08-03 14:33:00,
2013-08-03 08:42:00,66.0,58.0,30.15,North,0,3.0,9.0,76,0.00,,,-99.99,,2013-08-03 14:42:00,
2013-08-03 08:52:00,67.0,58.0,30.15,NNW,343,6.0,8.0,72,0.00,,,-99.99,,2013-08-03 14:52:00,
2013-08-03 09:02:00,67.0,56.0,30.15,NNE,33,6.0,9.0,68,0.00,,,-99.99,,2013-08-03 15:02:00,
2013-08-03 09:12:00,67.0,56.0,30.15,NW,316,4.0,8.0,68,0.00,,,-99.99,,2013-08-03 15:12:00,
2013-08-03 09:23:00,68.0,56.0,30.15,NNE,14,4.0,6.0,65,0.00,,,-99.99,,2013-08-03 15:23:00,
2013-08-03 09:32:00,68.0,55.0,30.15,NNW,329,6.0,8.0,63,0.00,,,-99.99,,2013-08-03 15:32:00,
2013-08-03 09:43:00,69.0,53.0,30.14,NNW,344,5.0,7.0,57,0.00,,,-99.99,,2013-08-03 15:43:00,
2013-08-03 09:53:00,69.0,53.0,30.14,North,11,7.0,7.0,56,0.00,,,-99.99,,2013-08-03 15:53:00,
2013-08-03 10:02:00,70.0,54.0,30.14,North,350,4.0,8.0,57,0.00,,,-99.99,,2013-08-03 16:02:00,
2013-08-03 10:12:00,70.0,54.0,30.13,NNW,333,4.0,7.0,57,0.00,,,-99.99,,2013-08-03 16:12:00,
2013-08-03 10:23:00,71.0,54.0,30.13,NNE,32,0.0,9.0,55,0.00,,,-99.99,,2013-08-03 16:23:00,
2013-08-03 10:33:00,71.0,53.0,30.13,ENE,57,2.0,8.0,53,0.00,,,-99.99,,2013-08-03 16:33:00,
2013-08-03 10:43:00,71.0,54.0,30.13,WNW,292,2.0,9.0,55,0.00,,,-99.99,,2013-08-03 16:43:00,
2013-08-03 10:53:00,72.0,54.0,30.13,North,354,2.0,6.0,53,0.00,,,-99.99,,2013-08-03 16:53:00,
2013-08-03 11:03:00,73.0,55.0,30.13,NNW,345,5.0,6.0,54,0.00,,,-99.99,,2013-08-03 17:03:00,
2013-08-03 11:12:00,73.0,54.0,30.12,SSW,213,0.0,6.0,52,0.00,,,-99.99,,2013-08-03 17:12:00,
2013-08-03 11:22:00,73.0,54.0,30.12,NW,305,6.0,6.0,52,0.00,,,-99.99,,2013-08-03 17:22:00,
2013-08-03 11:32:00,74.0,54.0,30.12,WNW,298,4.0,6.0,50,0.00,,,-99.99,,2013-08-03 17:32:00,
2013-08-03 11:43:00,74.0,55.0,30.11,West,278,2.0,6.0,51,0.00,,,-99.99,,2013-08-03 17:43:00,
2013-08-03 11:52:00,76.0,55.0,30.11,West,278,0.0,0.0,48,0.00,,,-99.99,,2013-08-03 17:52:00,
2013-08-03 12:02:00,76.0,53.0,30.10,NNW,347,0.0,1.0,45,0.00,,,-99.99,,2013-08-03 18:02:00,
2013-08-03 12:12:00,77.0,54.0,30.10,SSE,167,0.0,2.0,45,0.00,,,-99.99,,2013-08-03 18:12:00,
2013-08-03 12:22:00,77.0,53.0,30.10,WNW,284,6.0,6.0,44,0.00,,,-99.99,,2013-08-03 18:22:00,
2013-08-03 12:32:00,77.0,51.0,30.09,West,262,0.0,7.0,41,0.00,,,-99.99,,2013-08-03 18:32:00,
2013-08-03 12:43:00,78.0,53.0,30.09,SSW,202,0.0,4.0,42,0.00,,,-99.99,,2013-08-03 18:43:00,
2013-08-03 12:53:00,78.0,53.0,30.09,SW,225,0.0,5.0,42,0.00,,,-99.99,,2013-08-03 18:53:00,
2013-08-03 13:02:00,79.0,51.0,30.09,South,171,3.0,3.0,38,0.00,,,-99.99,,2013-08-03 19:02:00,
2013-08-03 13:12:00,80.0,52.0,30.08,West,281,6.0,6.0,38,0.00,,,-99.99,,2013-08-03 19:12:00,
2013-08-03 13:22:00,79.0,51.0,30.08,WSW,241,6.0,9.0,38,0.00,,,-99.99,,2013-08-03 19:22:00,
2013-08-03 13:32:00,80.0,52.0,30.08,WSW,244,7.0,7.0,38,0.00,,,-99.99,,2013-08-03 19:32:00,
2013-08-03 13:43:00,80.0,52.0,30.08,WSW,237,0.0,10.0,38,0.00,,,-99.99,,2013-08-03 19:43:00,
2013-08-03 13:52:00,80.0,50.0,30.07,WSW,241,11.0,11.0,35,0.00,,,-99.99,,2013-08-03 19:52:00,
2013-08-03 14:02:00,81.0,52.0,30.07,West,271,5.0,9.0,36,0.00,,,-99.99,,2013-08-03 20:02:00,
2013-08-03 14:12:00,81.0,49.0,30.06,SW,233,5.0,7.0,33,0.00,,,-99.99,,2013-08-03 20:12:00,
2013-08-03 14:22:00,82.0,47.0,30.06,North,351,6.0,8.0,30,0.00,,,-99.99,,2013-08-03 20:22:00,
2013-08-03 14:32:00,81.0,46.0,30.05,NE,54,6.0,8.0,29,0.00,,,-99.99,,2013-08-03 20:32:00,
2013-08-03 14:52:00,83.0,47.0,30.04,NW,305,1.0,7.0,28,0.00,,,-99.99,,2013-08-03 20:52:00,
2013-08-03 15:02:00,83.0,47.0,30.03,WSW,258,6.0,9.0,28,0.00,,,-99.99,,2013-08-03 21:02:00,
2013-08-03 15:12:00,83.0,46.0,30.03,ENE,67,1.0,8.0,27,0.00,,,-99.99,,2013-08-03 21:12:00,
2013-08-03 15:22:00,84.0,47.0,30.03,NNW,329,6.0,6.0,28,0.00,,,-99.99,,2013-08-03 21:22:00,
2013-08-03 15:32:00,84.0,46.0,30.02,WSW,250,5.0,8.0,27,0.00,,,-99.99,,2013-08-03 21:32:00,
2013-08-03 15:42:00,84.0,44.0,30.01,SSW,192,5.0,9.0,25,0.00,,,-99.99,,2013-08-03 21:42:00,
2013-08-03 15:52:00,85.0,45.0,30.01,WSW,257,7.0,7.0,25,0.00,,,-99.99,,2013-08-03 21:52:00,
2013-08-03 16:02:00,84.0,44.0,30.01,West,260,7.0,7.0,25,0.00,,,-99.99,,2013-08-03 22:02:00,
2013-08-03 16:12:00,85.0,43.0,30.01,SSW,212,6.0,11.0,23,0.00,,,-99.99,,2013-08-03 22:12:00,
2013-08-03 16:22:00,85.0,43.0,30.00,SE,146,2.0,6.0,23,0.00,,,-99.99,,2013-08-03 22:22:00,
2013-08-03 16:43:00,85.0,43.0,30.00,NNW,340,5.0,8.0,23,0.00,,,-99.99,,2013-08-03 22:43:00,
2013-08-03 16:52:00,85.0,43.0,29.99,SE,144,6.0,6.0,23,0.00,,,-99.99,,2013-08-03 22:52:00,
2013-08-03 17:02:00,86.0,43.0,29.99,North,350,10.0,10.0,22,0.00,,,-99.99,,2013-08-03 23:02:00,
2013-08-03 17:12:00,86.0,43.0,29.99,NNW,330,3.0,11.0,22,0.00,,,-99.99,,2013-08-03 23:12:00,
2013-08-03 17:22:00,86.0,43.0,29.99,NW,320,4.0,6.0,22,0.00,,,-99.99,,2013-08-03 23:22:00,
2013-08-03 17:32:00,86.0,46.0,29.99,West,277,3.0,6.0,25,0.00,,,-99.99,,2013-08-03 23:32:00,
2013-08-03 17:42:00,86.0,45.0,29.98,NNW,337,2.0,3.0,24,0.00,,,-99.99,,2013-08-03 23:42:00,
2013-08-03 17:52:00,86.0,43.0,29.98,NNE,30,2.0,4.0,22,0.00,,,-99.99,,2013-08-03 23:52:00,
2013-08-03 18:02:00,86.0,43.0,29.97,East,97,3.0,6.0,22,0.00,,,-99.99,,2013-08-04 00:02:00,
2013-08-03 18:12:00,86.0,44.0,29.97,NNW,340,1.0,3.0,23,0.00,,,-99.99,,2013-08-04 00:12:00,
2013-08-03 18:22:00,86.0,44.0,29.96,ESE,119,6.0,6.0,23,0.00,,,-99.99,,2013-08-04 00:22:00,
2013-08-03 18:32:00,87.0,44.0,29.96,NNW,330,0.0,6.0,22,0.00,,,-99.99,,2013-08-04 00:32:00,
2013-08-03 18:42:00,86.0,43.0,29.96,NE,45,0.0,5.0,22,0.00,,,-99.99,,2013-08-04 00:42:00,
2013-08-03 18:52:00,86.0,43.0,29.96,NE,45,0.0,5.0,22,0.00,,,-99.99,,2013-08-04 00:52:00,
2013-08-03 19:02:00,87.0,45.0,29.96,NNE,18,0.0,0.0,23,0.00,,,-99.99,,2013-08-04 01:02:00,
2013-08-03 19:12:00,87.0,44.0,29.96,WNW,286,0.0,3.0,22,0.00,,,-99.99,,2013-08-04 01:12:00,
2013-08-03 19:22:00,87.0,44.0,29.96,SW,220,0.0,2.0,22,0.00,,,-99.99,,2013-08-04 01:22:00,
2013-08-03 19:32:00,87.0,44.0,29.96,West,271,1.0,3.0,22,0.00,,,-99.99,,2013-08-04 01:32:00,
2013-08-03 19:42:00,87.0,44.0,29.96,West,271,1.0,3.0,22,0.00,,,-99.99,,2013-08-04 01:42:00,
2013-08-03 19:53:00,86.0,43.0,29.97,NW,305,5.0,6.0,22,0.00,,,-99.99,,2013-08-04 01:53:00,
2013-08-03 20:02:00,86.0,44.0,29.97,NW,305,2.0,6.0,23,0.00,,,-99.99,,2013-08-04 02:02:00,
2013-08-03 20:12:00,86.0,44.0,29.97,NW,305,2.0,6.0,23,0.00,,,-99.99,,2013-08-04 02:12:00,
2013-08-03 20:22:00,85.0,43.0,29.97,West,274,1.0,5.0,23,0.00,,,-99.99,,2013-08-04 02:22:00,
2013-08-03 20:32:00,85.0,45.0,29.98,West,260,0.0,3.0,25,0.00,,,-99.99,,2013-08-04 02:32:00,
2013-08-03 20:42:00,85.0,46.0,29.98,WSW,255,5.0,5.0,26,0.00,,,-99.99,,2013-08-04 02:42:00,
2013-08-03 20:52:00,83.0,47.0,30.01,SSW,206,3.0,6.0,29,0.00,,,-99.99,,2013-08-04 02:52:00,
2013-08-03 21:02:00,83.0,48.0,30.01,South,181,3.0,6.0,30,0.00,,,-99.99,,2013-08-04 03:02:00,
2013-08-03 21:11:00,83.0,48.0,30.01,South,181,3.0,6.0,30,0.00,,,-99.99,,2013-08-04 03:11:00,
2013-08-03 21:22:00,83.0,48.0,30.01,South,181,3.0,6.0,30,0.00,,,-99.99,,2013-08-04 03:22:00,
2013-08-03 21:32:00,82.0,47.0,30.03,SSW,210,4.0,6.0,30,0.00,,,-99.99,,2013-08-04 03:32:00,
2013-08-03 21:42:00,82.0,48.0,30.03,SSW,196,3.0,6.0,31,0.00,,,-99.99,,2013-08-04 03:42:00,
2013-08-03 21:52:00,81.0,50.0,30.04,SE,136,4.0,5.0,34,0.00,,,-99.99,,2013-08-04 03:52:00,
2013-08-03 22:02:00,80.0,51.0,30.04,East,99,6.0,6.0,37,0.00,,,-99.99,,2013-08-04 04:02:00,
2013-08-03 22:12:00,78.0,53.0,30.05,ESE,120,2.0,7.0,42,0.00,,,-99.99,,2013-08-04 04:12:00,
2013-08-03 22:22:00,78.0,53.0,30.05,ESE,120,2.0,7.0,42,0.00,,,-99.99,,2013-08-04 04:22:00,
2013-08-03 22:32:00,78.0,52.0,30.05,East,98,6.0,8.0,40,0.00,,,-99.99,,2013-08-04 04:32:00,
2013-08-03 22:42:00,78.0,52.0,30.05,East,98,6.0,8.0,40,0.00,,,-99.99,,2013-08-04 04:42:00,
2013-08-03 22:52:00,78.0,52.0,30.05,East,98,6.0,8.0,40,0.00,,,-99.99,,2013-08-04 04:52:00,
2013-08-03 23:02:00,78.0,52.0,30.08,SSE,149,0.0,0.0,40,0.00,,,-99.99,,2013-08-04 05:02:00,
2013-08-03 23:12:00,78.0,52.0,30.08,SSE,149,0.0,0.0,40,0.00,,,-99.99,,2013-08-04 05:12:00,
2013-08-03 23:22:00,77.0,52.0,30.08,SSE,149,0.0,0.0,42,0.00,,,-99.99,,2013-08-04 05:22:00,
2013-08-03 23:32:00,77.0,52.0,30.08,SSE,149,0.0,0.0,42,0.00,,,-99.99,,2013-08-04 05:32:00,
2013-08-03 23:42:00,77.0,52.0,30.08,SSE,149,0.0,0.0,42,0.00,,,-99.99,,2013-08-04 05:42:00,
2013-08-03 23:52:00,75.0,53.0,30.08,ESE,113,4.0,6.0,46,0.00,,,-99.99,,2013-08-04 05:52:00,